sat.trackr.live / text

‹ back to catalog

STARLINK-4768

NORAD 53806 · 2022-111AK

PAYLOAD ACTIVE UNKNOWN

§ Identity

Operator
Country
US
Launch date
2022-09-11
Launch site
AFETR
Launch vehicle
Mass (kg)
RCS (m²)

Purposes: comms

External: N2YO · Heavens-Above · Gunter

§ Orbital elements

Epoch: 2026-09-20T22:00:42.271488Z

Period
93.79 min
Inclination
53.1596°
Eccentricity
0.0001116
Mean motion
15.35396078 rev/d
Perigee alt
459.0 km
Apogee alt
460.5 km
Semi-major
6,837.9 km
B*
6.1327e-5
RAAN
84.0390°
Arg perigee
77.0381°
Mean anomaly
283.0747°
Rev number
22,361

§ Raw data

STARLINK-47681 53806U 22111AK  26263.91715592  .00001759  00000+0  61327-4 0  99912 53806  53.1596  84.0390 0001116  77.0381 283.0747 15.35396078223614

JSON: /api/v1/satellites/53806 · /tle

For live sub-satellite position, see the globe view (requires WebGL).

§ Visibility from observer

Set your observer location to see the next 7 days of passes ≥ 10°. The values pass through the URL so the page stays shareable.

No JS? Fill the form by hand. The geolocation button needs JavaScript.